[[{"header":{"parameterUnit":"m.s-1","parameterCategory":1,"la1":30.2991,"la2":30.254,"lo1":-89.0895,"lo2":-89.0444,"dy":0.0017,"dx":0.0017,"nx":28,"ny":28,"refTime":"2025-04-30T03:00:00:Z","depth":0,"parameterNumber":2,"parameterNumberName":"U-component_of_WINDS"},"data":[0,0,0,0,0,0,0,0,0,0,0,0,0,0,0,0,0,0,0,0,0,0,0,0,0,0,0,0,0,0,0,0,0,0,0,0,0,0,0,0,0,0,0,0,0,0,0,0,0,0,0,0,0,0,0,0,0,0,-2.8704,-2.8705,0,-2.8808,-2.8809,-2.881,-2.8822,-2.8821,-2.8819,-2.8818,-2.8925,-2.8929,-2.8932,0,0,0,0,0,0,0,0,0,0,0,0,0,-2.8517,-2.852,-2.8704,-2.8706,-2.8707,-2.8808,-2.8809,-2.8811,-2.8822,-2.882,-2.8819,-2.8818,-2.8924,-2.8928,-2.8933,0,0,0,0,0,0,0,0,0,0,0,0,0,-2.8607,-2.8521,-2.8704,-2.8725,-2.8727,-2.8807,-2.8809,-2.8811,-2.8822,-2.882,-2.8819,-2.8817,-2.8922,-2.8928,-2.8933,-2.9,0,0,-2.8951,-2.8953,0,0,0,0,0,0,0,0,-2.8602,-2.8614,-2.872,-2.8723,-2.8727,-2.88,-2.8782,-2.8874,-2.8822,-2.8786,-2.8818,-2.8817,-2.8885,-2.8893,-2.8916,-2.9005,-2.901,-2.8951,-2.8955,-2.8957,-2.8959,0,0,0,0,0,0,0,-2.8596,-2.861,-2.8745,-2.8722,-2.8726,-2.8729,-2.874,-2.88,-2.8843,-2.8789,-2.879,-2.8802,-2.8886,-2.8911,-2.8919,-2.9011,-2.8951,-2.8956,-2.896,-2.8962,-2.916,-2.9162,0,0,0,0,0,0,-2.8585,-2.8604,-2.8742,-2.8748,-2.8659,-2.8733,-2.8746,-2.8778,-2.8842,-2.8851,-2.8804,-2.8802,-2.8902,-2.8912,-2.8923,-2.9005,-2.8957,-2.8963,-2.8966,-2.9158,-2.9161,-2.9163,0,0,0,0,0,0,-2.8581,-2.8598,-2.8738,-2.8677,-2.8695,-2.8738,-2.8775,-2.8781,-2.8806,-2.8853,-2.8861,-2.8821,-2.8901,-2.8915,-2.8981,-2.9009,-2.8965,-2.897,-2.9156,-2.9159,-2.9162,-2.9169,0,0,0,0,0,0,-2.8576,-2.8596,-2.8622,-2.8677,-2.8698,-2.8794,-2.8776,-2.8784,-2.8815,-2.8815,-2.8871,-2.8879,-2.8901,-2.8972,-2.8987,-2.9016,-2.8975,-2.9154,-2.9158,-2.9161,-2.9167,-2.9172,-2.9177,0,0,0,0,0,-2.8569,-2.862,-2.8623,-2.8639,-2.8731,-2.8796,-2.8807,-2.8831,-2.8818,-2.8844,-2.8875,-2.8877,-2.9004,-2.8979,-2.8995,-2.9026,-2.9152,-2.9157,-2.9161,-2.9165,-2.9171,-2.9177,0,0,0,0,0,0,-2.8567,-2.8628,-2.8632,-2.8702,-2.8743,-2.8797,-2.8831,-2.8837,-2.8884,-2.8881,-2.8909,-2.8922,-2.8986,-2.9013,-2.8985,-2.9095,-2.9077,-2.9084,-2.9074,-2.9081,-2.9086,-2.9077,-2.898,0,0,0,0,0,-2.8574,-2.8622,-2.8672,-2.8729,-2.875,-2.8787,-2.8816,-2.8831,-2.8875,-2.8893,-2.8928,-2.8971,-2.9021,-2.9052,-2.91,-2.9171,-2.9184,-2.9201,-2.9206,-2.921,-2.9215,-2.9255,-2.9263,-2.9176,-2.9176,-2.9176,0,0,-2.8591,-2.863,-2.8658,-2.873,-2.8764,-2.8812,-2.8802,-2.8853,-2.8889,-2.8901,-2.8965,-2.8993,-2.9043,-2.9111,-2.9143,-2.9136,-2.9242,-2.9215,-2.9217,-2.9221,-2.926,-2.9268,-2.9275,-2.9179,-2.9178,-2.9178,0,0,-2.8645,-2.8679,-2.873,-2.8764,-2.8816,-2.884,-2.8852,-2.8906,-2.8925,-2.899,-2.8999,-2.9043,-2.9127,-2.9162,-2.9191,-2.9259,-2.9263,-2.9274,-2.9299,-2.9337,-2.9344,-2.935,-2.9373,-2.9381,-2.928,-2.928,-2.928,0,-2.8658,-2.8731,-2.8756,-2.8807,-2.8838,-2.8851,-2.8903,-2.8935,-2.9,-2.9021,-2.9012,-2.9118,-2.9152,-2.9229,-2.9246,-2.9269,-2.9284,-2.9267,-2.9341,-2.9347,-2.9353,-2.9376,-2.9385,-2.9281,-2.9281,-2.9281,-2.928,0,-2.8745,-2.8795,-2.8831,-2.8892,-2.8928,-2.8979,-2.9012,-2.9045,-2.9057,-2.9082,-2.9148,-2.919,-2.9247,-2.9267,-2.9279,-2.9345,-2.9339,-2.9335,-2.9317,-2.9362,-2.9384,-2.9393,-2.9282,-2.9282,-2.9281,-2.9281,0,0,-2.8799,-2.8874,-2.8887,-2.8915,-2.8973,-2.9012,-2.9065,-2.912,-2.9147,-2.9192,-2.9236,-2.9308,-2.9304,-2.9337,-2.9353,-2.9387,-2.9437,-2.9379,-2.938,-2.9387,-2.9513,-2.9514,-2.9524,-2.9441,-2.9443,-2.9444,-2.9508,0,-2.8859,-2.8952,-2.8976,-2.9054,-2.9101,-2.9114,-2.916,-2.92,-2.9225,-2.9269,-2.9297,-2.9347,-2.9339,-2.9359,-2.9393,-2.9424,-2.9462,-2.942,-2.9482,-2.9484,-2.9468,-2.9536,-2.9538,-2.9596,-2.9517,-2.9518,-2.9519,0,-2.8941,-2.8987,-2.907,-2.9122,-2.9143,-2.9183,-2.9235,-2.9277,-2.9324,-2.934,-2.9376,-2.939,-2.9445,-2.9425,-2.9501,-2.9472,-2.9499,-2.9518,-2.9521,-2.9527,-2.9503,-2.9542,-2.9615,-2.9624,-2.9533,-2.9532,-2.9531,0,-2.8972,-2.9054,-2.9115,-2.9138,-2.92,-2.9228,-2.9256,-2.9301,-2.9332,-2.9379,-2.9399,-2.9451,-2.948,-2.952,-2.9547,-2.953,-2.9621,-2.9604,-2.9635,-2.9635,-2.9653,-2.9651,-2.973,-2.9672,-2.9672,-2.9672,-2.9672,0,-2.9035,-2.9086,-2.9129,-2.9166,-2.9223,-2.925,-2.9306,-2.9333,-2.9373,-2.9416,-2.9431,-2.9471,-2.9505,-2.955,-2.9571,-2.9631,-2.9644,-2.9658,-2.9663,-2.9656,-2.9654,-2.9674,-2.967,-2.9674,-2.9674,-2.9673,-2.9673,0,-2.9078,-2.9109,-2.9176,-2.9229,-2.9244,-2.9283,-2.9329,-2.9366,-2.9392,-2.9446,-2.946,-2.9501,-2.9554,-2.9586,-2.9653,-2.9668,-2.9733,-2.9737,-2.9717,-2.9719,-2.9749,-2.9746,-2.9843,-2.9856,-2.979,-2.979,-2.9791,0,-2.9117,-2.9155,-2.9213,-2.9242,-2.927,-2.9317,-2.935,-2.9378,-2.9411,-2.9467,-2.9497,-2.9551,-2.9596,-2.9681,-2.9717,-2.9769,-2.9773,-2.9804,-2.9781,-2.9773,-2.9773,-2.977,-2.9773,-2.9807,-2.9808,-2.9808,-2.9808,0,-2.9181,-2.9194,-2.924,-2.9291,-2.9329,-2.9371,-2.9413,-2.9436,-2.9472,-2.9508,-2.9563,-2.9598,-2.9666,-2.972,-2.9775,-2.9803,-2.9812,-2.9815,-2.9825,-2.9818,-2.9805,-2.9812,-2.9727,-2.9813,-2.9812,-2.9812,-2.9812,-2.9812,-2.9222,-2.9257,-2.9303,-2.9353,-2.9388,-2.9426,-2.9463,-2.9493,-2.9539,-2.9597,-2.9612,-2.9669,-2.9715,-2.9789,-2.9819,-2.9864,-2.9859,-2.9874,-2.9877,-2.988,-2.9881,-2.9798,-2.9874,-2.9874,-2.9874,-2.9874,-2.9874,0,-2.9287,-2.9317,-2.9363,-2.942,-2.946,-2.9465,-2.9511,-2.9544,-2.9594,-2.9636,-2.9679,-2.9742,-2.9794,-2.9834,-2.9888,-2.9916,-2.9922,-2.9929,-2.9927,-2.9933,-2.9882,-2.9868,-2.9924,-2.9924,-2.9924,-2.9924,-2.9924,-2.9924,-2.9325,-2.9384,-2.9403,-2.9479,-2.9509,-2.9565,-2.9591,-2.9626,-2.966,-2.9729,-2.9772,-2.9798,-2.9839,-2.9896,-2.9944,-2.9954,-2.9973,-2.998,-2.9991,-2.9942,-2.9937,-2.9932,-2.9918,-2.9984,-2.9984,-3.0038,-3.0039,-3.0039]},{"header":{"parameterUnit":"m.s-1","parameterCategory":1,"la1":30.2991,"la2":30.254,"lo1":-89.0895,"lo2":-89.0444,"dy":0.0017,"dx":0.0017,"nx":28,"ny":28,"refTime":"2025-04-30T03:00:00:Z","depth":0,"parameterNumber":3,"parameterNumberName":"V-component_of_WINDS"},"data":[0,0,0,0,0,0,0,0,0,0,0,0,0,0,0,0,0,0,0,0,0,0,0,0,0,0,0,0,0,0,0,0,0,0,0,0,0,0,0,0,0,0,0,0,0,0,0,0,0,0,0,0,0,0,0,0,0,0,3.989,3.989,0,3.9909,3.991,3.991,3.9875,3.9874,3.9873,3.9872,3.989,3.9891,3.9893,0,0,0,0,0,0,0,0,0,0,0,0,0,3.9819,3.9821,3.989,3.989,3.989,3.9909,3.991,3.991,3.9875,3.9874,3.9873,3.9871,3.9889,3.9891,3.9893,0,0,0,0,0,0,0,0,0,0,0,0,0,3.9845,3.9821,3.989,3.9875,3.9874,3.9909,3.991,3.991,3.9876,3.9874,3.9872,3.9871,3.9889,3.9891,3.9893,3.9943,0,0,3.99,3.9901,0,0,0,0,0,0,0,0,3.9844,3.9848,3.9877,3.9876,3.9875,3.9888,3.9891,3.9921,3.9876,3.9875,3.9872,3.987,3.9891,3.9893,3.99,3.9943,3.9944,3.9901,3.9902,3.9903,3.9904,0,0,0,0,0,0,0,3.9842,3.9847,3.9897,3.9878,3.9876,3.9867,3.9869,3.9897,3.9892,3.9875,3.9873,3.9876,3.989,3.9898,3.99,3.9945,3.9901,3.9903,3.9904,3.9905,4.0027,4.0029,0,0,0,0,0,0,3.9842,3.9846,3.9897,3.9898,3.9855,3.987,3.9872,3.9886,3.9892,3.9891,3.9877,3.9874,3.9895,3.9898,3.9901,3.9957,3.9903,3.9905,3.9907,4.0025,4.0027,4.0029,0,0,0,0,0,0,3.9841,3.9847,3.9896,3.9871,3.9877,3.9873,3.9889,3.9887,3.9895,3.9893,3.9892,3.9886,3.9893,3.9897,3.9932,3.9957,3.9906,3.9908,4.0023,4.0026,4.0028,4.007,0,0,0,0,0,0,3.9839,3.9847,3.9867,3.9872,3.9878,3.9928,3.989,3.9889,3.99,3.9896,3.9902,3.9901,3.9892,3.9929,3.9934,3.9959,3.991,4.0021,4.0024,4.0027,4.0067,4.0074,4.0081,0,0,0,0,0,3.9837,3.9878,3.9868,3.9874,3.9902,3.9929,3.9933,3.9923,3.9902,3.992,3.9919,3.9901,3.9954,3.9933,3.9939,3.9965,4.0019,4.0023,4.0027,4.0064,4.0073,4.0081,0,0,0,0,0,0,3.9875,3.9878,3.9867,3.9911,3.992,3.9924,3.9947,3.9933,3.9948,3.9943,3.9929,3.9931,3.9968,3.997,3.9946,4.0012,3.9983,3.9988,4.0008,4.0017,4.0024,4.0022,3.9912,0,0,0,0,0,3.9888,3.9911,3.9912,3.9951,3.9956,3.9951,3.9962,3.9954,3.9962,3.9966,3.9967,3.9975,3.9994,4.0006,4.0023,4.0068,4.0067,4.0089,4.0096,4.0101,4.0105,4.0127,4.0136,4.0043,4.0043,4.0043,0,0,3.9916,3.9921,3.9936,3.9959,3.9965,3.9987,3.9954,3.998,3.9996,3.9969,4.0001,4.0003,4.0011,4.0051,4.0068,4.0054,4.0131,4.0107,4.0111,4.0112,4.0132,4.0141,4.0149,4.0046,4.0045,4.0045,0,0,3.9978,3.9985,4.0017,4.0024,4.0033,4.003,4.0037,4.0043,4.0042,4.0075,4.0055,4.0074,4.0106,4.0112,4.012,4.0183,4.0166,4.0189,4.0225,4.0246,4.0253,4.026,4.028,4.0288,4.0194,4.0194,4.0194,0,4.0011,4.0045,4.0035,4.0061,4.0071,4.0049,4.008,4.0087,4.0101,4.0108,4.0092,4.0131,4.0135,4.0175,4.019,4.0198,4.0205,4.0187,4.0253,4.026,4.0265,4.0284,4.0292,4.0197,4.0196,4.0196,4.0196,0,4.0084,4.0108,4.0132,4.0147,4.0159,4.0188,4.0181,4.0195,4.0185,4.0183,4.0215,4.0219,4.0236,4.0245,4.0236,4.0283,4.0273,4.0256,4.0226,4.0277,4.0294,4.0302,4.02,4.0199,4.0199,4.0198,0,0,4.0169,4.0178,4.0187,4.0192,4.0201,4.0218,4.0246,4.0262,4.0273,4.0284,4.0305,4.0333,4.0316,4.0325,4.0316,4.0335,4.0382,4.0315,4.0315,4.0325,4.0432,4.0443,4.0452,4.0372,4.0374,4.0375,4.043,0,4.0229,4.0276,4.0267,4.0312,4.0332,4.0312,4.0335,4.0342,4.0341,4.0357,4.0355,4.0374,4.0352,4.0357,4.0375,4.0373,4.0403,4.0369,4.039,4.039,4.0386,4.0461,4.0474,4.0525,4.0437,4.0438,4.0439,0,4.0304,4.0317,4.0365,4.0369,4.0377,4.0398,4.0411,4.0428,4.0436,4.0433,4.0442,4.043,4.0455,4.0427,4.0461,4.0438,4.0446,4.0447,4.0449,4.0448,4.0416,4.046,4.0542,4.0549,4.045,4.045,4.0449,0,4.0358,4.0388,4.042,4.0426,4.0432,4.0447,4.045,4.0456,4.0466,4.0478,4.0484,4.0499,4.0506,4.0518,4.0509,4.049,4.0544,4.0515,4.054,4.0541,4.0551,4.055,4.0632,4.056,4.056,4.056,4.056,0,4.0424,4.0453,4.0444,4.0463,4.0494,4.0484,4.0515,4.0516,4.0521,4.0539,4.0523,4.054,4.0529,4.0545,4.0539,4.0566,4.057,4.0568,4.0565,4.0568,4.0568,4.0571,4.0566,4.0562,4.0562,4.0561,4.0561,0,4.0489,4.0484,4.0517,4.052,4.0522,4.0544,4.0547,4.0564,4.0561,4.0584,4.0589,4.0584,4.0602,4.0595,4.0615,4.061,4.0645,4.0639,4.0642,4.064,4.0664,4.0661,4.075,4.076,4.0684,4.0685,4.0685,0,4.053,4.0552,4.0557,4.0568,4.0572,4.0591,4.0601,4.0591,4.0602,4.0612,4.0627,4.0644,4.0656,4.0685,4.0683,4.0697,4.069,4.072,4.0692,4.0693,4.0687,4.0685,4.0686,4.0725,4.0726,4.0727,4.0727,0,4.0603,4.0599,4.0614,4.0628,4.0641,4.0651,4.0661,4.067,4.0661,4.0674,4.0692,4.0702,4.0721,4.0737,4.0749,4.0751,4.0737,4.0736,4.0742,4.0744,4.0744,4.0742,4.0655,4.0734,4.0733,4.0733,4.0732,4.0732,4.0655,4.0672,4.0679,4.0696,4.0702,4.071,4.0726,4.0725,4.074,4.0755,4.0749,4.0769,4.0775,4.079,4.0794,4.0809,4.0797,4.0807,4.0809,4.081,4.0812,4.0744,4.0812,4.0812,4.0811,4.0811,4.0811,0,4.0724,4.0727,4.0743,4.0756,4.0769,4.0756,4.0765,4.0776,4.0795,4.0801,4.0814,4.0834,4.0849,4.0848,4.0862,4.0874,4.0868,4.0878,4.0875,4.0876,4.0824,4.0816,4.0882,4.0882,4.0882,4.0882,4.0882,4.0882,4.0762,4.079,4.0787,4.0818,4.082,4.084,4.0846,4.0853,4.0858,4.0881,4.0894,4.0893,4.0897,4.091,4.0923,4.0923,4.0927,4.0939,4.0936,4.0887,4.088,4.0873,4.0865,4.0941,4.0941,4.0987,4.0987,4.0987]}]]